Back to Top

Language: 

My Weather Underground Personal Weather Station Historical Data with Graphs...

Delerius Weather Station Historical Data
Daily Summary for February 3, 2017 Units:  Metric    English   Both
« Previous Day
Next Day »
Daily Weekly Monthly Yearly Custom
  High: Low: Average:
Temperature: 10.3 °C 6.1 °C 8.1 °C
Dew Point: 6.6 °C 4.3 °C 5.6 °C
Humidity: 95 % 73 % 84 %
Wind Speed: 32.2 km/h 3.2 km/h 16.7 km/h
Wind Gust: 54.7 km/h - -
Wind:- - SSE
Pressure: 994.8 hPa 986.7 hPa -
Precipitation: 1.27 mm    
Historical Graphs
 
 
Tabular Data for February 3, 2017
Time Temperature Dew Point Pressure Wind Wind Speed Wind Gust Humidity Rainfall Rate (Hourly) solar Conditions
00:05 10.3 °C 6.5 °C 988.7 hPa South 24.1 km/h 33.8 km/h 77 % 0 mm 0 W/m2
00:15 10.3 °C 6.5 °C 988.7 hPa SSW 32.2 km/h 45.1 km/h 77 % 0 mm 0 W/m2
00:20 10.2 °C 6.6 °C 988.7 hPa SSW 30.6 km/h 30.6 km/h 78 % 0 mm 0 W/m2
00:25 10.2 °C 6.5 °C 988.7 hPa South 27.4 km/h 30.6 km/h 78 % 0 mm 0 W/m2
00:35 10.1 °C 6.3 °C 989.1 hPa South 32.2 km/h 48.3 km/h 77 % 0 mm 0 W/m2
00:40 10.1 °C 6.2 °C 989.1 hPa South 30.6 km/h 30.6 km/h 77 % 0 mm 0 W/m2
00:45 10 °C 6.3 °C 989.4 hPa SSW 25.7 km/h 30.6 km/h 78 % 0 mm 0 W/m2
00:50 9.9 °C 6.1 °C 989.4 hPa SW 25.7 km/h 25.7 km/h 77 % 0 mm 0 W/m2
00:55 9.9 °C 6.2 °C 989.4 hPa SSW 27.4 km/h 27.4 km/h 78 % 0 mm 0 W/m2
01:05 9.8 °C 6 °C 989.7 hPa SSW 24.1 km/h 33.8 km/h 77 % 0 mm 0 W/m2
01:10 9.9 °C 6.1 °C 989.7 hPa SW 24.1 km/h 24.1 km/h 77 % 0 mm 0 W/m2
01:15 9.9 °C 6.1 °C 989.7 hPa SW 22.5 km/h 54.7 km/h 77 % 0 mm 0 W/m2
01:20 9.8 °C 6.2 °C 989.7 hPa SW 22.5 km/h 22.5 km/h 78 % 0 mm 0 W/m2
01:29 9.8 °C 6.1 °C 989.7 hPa SSW 22.5 km/h 54.7 km/h 78 % 0 mm 0 W/m2
01:34 9.8 °C 6.1 °C 990.1 hPa SSW 24.1 km/h 54.7 km/h 78 % 0 mm 0 W/m2
01:40 9.7 °C 6.1 °C 990.1 hPa SW 24.1 km/h 54.7 km/h 78 % 0 mm 0 W/m2
01:45 9.7 °C 6 °C 990.1 hPa SSW 25.7 km/h 54.7 km/h 78 % 0 mm 0 W/m2
01:50 9.7 °C 6 °C 990.4 hPa SSW 27.4 km/h 27.4 km/h 78 % 0 mm 0 W/m2
01:59 9.6 °C 5.9 °C 990.1 hPa SW 27.4 km/h 27.4 km/h 78 % 0 mm 0 W/m2
02:05 9.4 °C 6 °C 990.1 hPa SSW 27.4 km/h 54.7 km/h 79 % 0 mm 0 W/m2
02:10 9.4 °C 5.9 °C 990.4 hPa SW 24.1 km/h 24.1 km/h 79 % 0 mm 0 W/m2
02:19 9.3 °C 6 °C 990.4 hPa South 19.3 km/h 54.7 km/h 80 % 0 mm 0 W/m2
02:25 9.2 °C 5.9 °C 990.4 hPa SSW 20.9 km/h 54.7 km/h 80 % 0 mm 0 W/m2
02:30 9.3 °C 5.8 °C 990.4 hPa SW 24.1 km/h 54.7 km/h 79 % 0 mm 0 W/m2
02:35 9.3 °C 5.6 °C 990.4 hPa SSW 25.7 km/h 54.7 km/h 78 % 0 mm 0 W/m2
02:40 9.2 °C 5.6 °C 990.4 hPa SSW 24.1 km/h 24.1 km/h 78 % 0 mm 0 W/m2
02:50 9.2 °C 5.7 °C 990.4 hPa SSW 20.9 km/h 20.9 km/h 79 % 0 mm 0 W/m2
02:55 9.1 °C 5.7 °C 990.4 hPa SW 17.7 km/h 54.7 km/h 79 % 0 mm 0 W/m2
03:00 9.1 °C 5.6 °C 990.7 hPa South 19.3 km/h 19.3 km/h 79 % 0 mm 0 W/m2
03:05 9 °C 5.6 °C 990.7 hPa SSW 19.3 km/h 54.7 km/h 79 % 0 mm 0 W/m2
03:10 8.9 °C 5.7 °C 990.7 hPa SSW 16.1 km/h 16.1 km/h 80 % 0 mm 0 W/m2
03:20 8.8 °C 5.5 °C 991.1 hPa SSW 17.7 km/h 54.7 km/h 80 % 0 mm 0 W/m2
03:25 8.8 °C 5.7 °C 991.1 hPa SSW 16.1 km/h 54.7 km/h 81 % 0 mm 0 W/m2
03:30 8.7 °C 5.8 °C 991.1 hPa SSW 17.7 km/h 54.7 km/h 82 % 0 mm 0 W/m2
03:35 8.7 °C 5.8 °C 991.1 hPa South 17.7 km/h 54.7 km/h 82 % 0 mm 0 W/m2
03:40 8.7 °C 5.8 °C 991.1 hPa South 17.7 km/h 54.7 km/h 82 % 0 mm 0 W/m2
03:45 8.5 °C 5.8 °C 990.7 hPa SSE 16.1 km/h 54.7 km/h 83 % 0 mm 0 W/m2
03:55 8.4 °C 5.7 °C 990.7 hPa SSW 16.1 km/h 54.7 km/h 83 % 0 mm 0 W/m2
04:00 8.3 °C 5.6 °C 991.1 hPa SW 14.5 km/h 14.5 km/h 83 % 0 mm 0 W/m2
04:05 8.3 °C 5.6 °C 991.1 hPa South 16.1 km/h 19.3 km/h 83 % 0 mm 0 W/m2
04:10 8.3 °C 5.6 °C 991.4 hPa South 16.1 km/h 54.7 km/h 83 % 0 mm 0 W/m2
04:15 8.3 °C 5.6 °C 991.4 hPa SSW 14.5 km/h 54.7 km/h 83 % 0 mm 0 W/m2
04:25 8.3 °C 5.6 °C 991.4 hPa SSW 16.1 km/h 54.7 km/h 83 % 0 mm 0 W/m2
04:30 8.2 °C 5.5 °C 991.4 hPa South 17.7 km/h 54.7 km/h 83 % 0 mm 0 W/m2
04:35 8.2 °C 5.4 °C 991.4 hPa South 17.7 km/h 54.7 km/h 83 % 0 mm 0 W/m2
04:40 8.2 °C 5.6 °C 991.4 hPa SSE 16.1 km/h 54.7 km/h 84 % 0 mm 0 W/m2
04:45 8.1 °C 5.6 °C 991.4 hPa SSW 17.7 km/h 54.7 km/h 84 % 0 mm 0 W/m2
04:50 8.1 °C 5.3 °C 991.8 hPa South 19.3 km/h 54.7 km/h 83 % 0 mm 0 W/m2
05:00 7.9 °C 5.2 °C 991.8 hPa SSW 17.7 km/h 54.7 km/h 83 % 0 mm 0 W/m2
05:05 7.9 °C 5.1 °C 991.8 hPa SSW 19.3 km/h 54.7 km/h 82 % 0 mm 0 W/m2
05:10 7.9 °C 5 °C 991.8 hPa South 20.9 km/h 20.9 km/h 82 % 0 mm 0 W/m2
05:15 7.9 °C 5 °C 991.8 hPa South 22.5 km/h 29 km/h 82 % 0 mm 0 W/m2
05:20 7.9 °C 5 °C 991.8 hPa South 20.9 km/h 20.9 km/h 82 % 0 mm 0 W/m2
05:30 7.8 °C 5.1 °C 992.1 hPa South 19.3 km/h 19.3 km/h 83 % 0 mm 0 W/m2
05:35 7.7 °C 4.8 °C 992.1 hPa SSW 17.7 km/h 20.9 km/h 82 % 0 mm 0 W/m2
05:40 7.7 °C 4.8 °C 992.1 hPa SSE 16.1 km/h 16.1 km/h 82 % 0 mm 0 W/m2
05:45 7.6 °C 4.9 °C 992.1 hPa South 16.1 km/h 54.7 km/h 83 % 0 mm 0 W/m2
05:50 7.6 °C 4.8 °C 992.1 hPa SSW 14.5 km/h 14.5 km/h 83 % 0 mm 0 W/m2
05:55 7.5 °C 4.8 °C 992.4 hPa SW 12.9 km/h 54.7 km/h 83 % 0 mm 0 W/m2
06:05 7.4 °C 4.8 °C 992.4 hPa SW 11.3 km/h 54.7 km/h 84 % 0 mm 0 W/m2
06:10 7.3 °C 4.8 °C 992.4 hPa SW 11.3 km/h 54.7 km/h 84 % 0 mm 0 W/m2
06:15 7.2 °C 4.7 °C 992.8 hPa SW 11.3 km/h 54.7 km/h 84 % 0 mm 0 W/m2
06:20 7.2 °C 4.8 °C 992.8 hPa SSW 9.7 km/h 54.7 km/h 85 % 0 mm 0 W/m2
06:25 7.1 °C 4.7 °C 993.1 hPa SSW 8 km/h 54.7 km/h 85 % 0 mm 0 W/m2
06:35 6.9 °C 4.7 °C 993.1 hPa SSW 8 km/h 12.9 km/h 86 % 0 mm 0 W/m2
06:40 6.8 °C 4.7 °C 993.5 hPa SSW 8 km/h 54.7 km/h 86 % 0 mm 0 W/m2
06:45 6.7 °C 4.6 °C 993.1 hPa SW 9.7 km/h 54.7 km/h 86 % 0 mm 0 W/m2
06:50 6.7 °C 4.6 °C 993.5 hPa SSW 11.3 km/h 11.3 km/h 86 % 0 mm 0 W/m2
06:55 6.7 °C 4.5 °C 993.5 hPa SSW 12.9 km/h 19.3 km/h 86 % 0 mm 0 W/m2
07:00 6.6 °C 4.4 °C 993.5 hPa SW 14.5 km/h 14.5 km/h 86 % 0 mm 0 W/m2
07:10 6.6 °C 4.6 °C 993.5 hPa SW 16.1 km/h 16.1 km/h 87 % 0 mm 0 W/m2
07:15 6.6 °C 4.6 °C 993.8 hPa SSW 17.7 km/h 22.5 km/h 87 % 0 mm 0 W/m2
07:20 6.7 °C 4.7 °C 993.8 hPa SSW 19.3 km/h 19.3 km/h 87 % 0 mm 0 W/m2
07:25 6.7 °C 4.5 °C 993.8 hPa SW 19.3 km/h 54.7 km/h 86 % 0 mm 0 W/m2
07:30 6.6 °C 4.4 °C 993.8 hPa SSW 16.1 km/h 16.1 km/h 86 % 0 mm 0 W/m2
07:39 6.6 °C 4.4 °C 993.8 hPa SSW 17.7 km/h 54.7 km/h 86 % 0 mm 0 W/m2
07:44 6.6 °C 4.6 °C 993.8 hPa SW 16.1 km/h 54.7 km/h 87 % 0 mm 5 W/m2
07:49 6.5 °C 4.5 °C 993.8 hPa SSW 12.9 km/h 12.9 km/h 87 % 0 mm 7 W/m2
07:54 6.4 °C 4.4 °C 993.8 hPa SW 11.3 km/h 16.1 km/h 87 % 0 mm 11 W/m2
07:59 6.4 °C 4.4 °C 993.8 hPa South 11.3 km/h 11.3 km/h 87 % 0 mm 14 W/m2
08:04 6.3 °C 4.3 °C 993.8 hPa SSW 9.7 km/h 54.7 km/h 87 % 0 mm 18 W/m2
08:10 6.4 °C 4.4 °C 994.1 hPa South 9.7 km/h 9.7 km/h 87 % 0 mm 21 W/m2
08:15 6.4 °C 4.4 °C 994.1 hPa South 8 km/h 54.7 km/h 87 % 0 mm 25 W/m2
08:20 6.4 °C 4.4 °C 994.1 hPa South 8 km/h 8 km/h 87 % 0 mm 28 W/m2
08:25 6.4 °C 4.4 °C 994.1 hPa South 6.4 km/h 54.7 km/h 87 % 0 mm 39 W/m2
08:30 6.3 °C 4.3 °C 994.1 hPa SE 3.2 km/h 3.2 km/h 87 % 0 mm 42 W/m2
08:35 6.3 °C 4.3 °C 994.1 hPa ESE 3.2 km/h 54.7 km/h 87 % 0 mm 44 W/m2
08:45 6.3 °C 4.4 °C 994.1 hPa SSE 6.4 km/h 54.7 km/h 88 % 0 mm 39 W/m2
08:50 6.3 °C 4.4 °C 994.1 hPa SSE 9.7 km/h 9.7 km/h 88 % 0 mm 35 W/m2
08:55 6.3 °C 4.5 °C 994.1 hPa South 11.3 km/h 11.3 km/h 88 % 0 mm 40 W/m2
09:00 6.4 °C 4.6 °C 994.1 hPa South 11.3 km/h 11.3 km/h 88 % 0 mm 44 W/m2
09:05 6.4 °C 4.6 °C 994.1 hPa South 9.7 km/h 54.7 km/h 88 % 0 mm 46 W/m2
09:15 6.6 °C 4.6 °C 994.5 hPa South 11.3 km/h 54.7 km/h 87 % 0 mm 111 W/m2
09:20 6.6 °C 4.8 °C 994.5 hPa South 11.3 km/h 11.3 km/h 88 % 0 mm 123 W/m2
09:25 6.6 °C 4.6 °C 994.5 hPa South 9.7 km/h 54.7 km/h 87 % 0 mm 167 W/m2
09:30 6.7 °C 4.7 °C 994.1 hPa South 9.7 km/h 54.7 km/h 87 % 0 mm 176 W/m2
09:35 6.8 °C 4.8 °C 994.5 hPa SSW 11.3 km/h 54.7 km/h 87 % 0 mm 192 W/m2
09:40 7.1 °C 5.1 °C 994.5 hPa SSW 12.9 km/h 54.7 km/h 87 % 0 mm 207 W/m2
09:50 7.3 °C 5.2 °C 994.5 hPa SSW 14.5 km/h 54.7 km/h 86 % 0 mm 207 W/m2
09:55 7.4 °C 5.1 °C 994.5 hPa South 14.5 km/h 54.7 km/h 85 % 0 mm 214 W/m2
10:00 7.6 °C 5.2 °C 994.5 hPa SSW 16.1 km/h 16.1 km/h 85 % 0 mm 236 W/m2
10:09 7.8 °C 5.3 °C 994.5 hPa SSW 16.1 km/h 16.1 km/h 84 % 0 mm 243 W/m2
10:15 7.9 °C 5.2 °C 994.5 hPa South 16.1 km/h 30.6 km/h 83 % 0 mm 258 W/m2
10:20 8 °C 5.3 °C 994.8 hPa South 17.7 km/h 17.7 km/h 83 % 0 mm 244 W/m2
10:29 8.2 °C 5.5 °C 994.8 hPa South 14.5 km/h 14.5 km/h 83 % 0 mm 207 W/m2
10:34 8.3 °C 5.4 °C 994.8 hPa South 14.5 km/h 24.1 km/h 82 % 0 mm 288 W/m2
10:39 8.4 °C 5.6 °C 994.8 hPa South 14.5 km/h 14.5 km/h 82 % 0 mm 274 W/m2
10:44 8.6 °C 5.6 °C 994.8 hPa SSE 12.9 km/h 54.7 km/h 81 % 0 mm 283 W/m2
10:50 8.7 °C 5.7 °C 994.8 hPa SSE 11.3 km/h 54.7 km/h 81 % 0 mm 281 W/m2
10:55 8.7 °C 5.7 °C 994.5 hPa SSW 12.9 km/h 54.7 km/h 81 % 0 mm 336 W/m2
11:00 8.7 °C 5.7 °C 994.5 hPa SE 14.5 km/h 14.5 km/h 81 % 0 mm 345 W/m2
11:05 8.7 °C 5.7 °C 994.5 hPa South 14.5 km/h 16.1 km/h 81 % 0 mm 255 W/m2
11:10 8.7 °C 5.8 °C 994.5 hPa South 14.5 km/h 54.7 km/h 82 % 0 mm 197 W/m2
11:19 8.5 °C 5.6 °C 994.5 hPa SSW 14.5 km/h 14.5 km/h 82 % 0 mm 178 W/m2
11:25 8.5 °C 5.8 °C 994.5 hPa South 12.9 km/h 54.7 km/h 83 % 0 mm 206 W/m2
11:30 8.6 °C 5.8 °C 994.5 hPa South 12.9 km/h 12.9 km/h 83 % 0 mm 188 W/m2
11:39 8.7 °C 5.9 °C 994.5 hPa South 9.7 km/h 54.7 km/h 83 % 0 mm 186 W/m2
11:44 8.6 °C 5.9 °C 994.5 hPa South 11.3 km/h 54.7 km/h 83 % 0 mm 202 W/m2
11:49 8.7 °C 6 °C 994.5 hPa SSE 12.9 km/h 54.7 km/h 83 % 0 mm 355 W/m2
11:55 8.9 °C 6.2 °C 994.1 hPa SE 12.9 km/h 54.7 km/h 83 % 0 mm 413 W/m2
12:00 9.1 °C 6.2 °C 994.1 hPa South 14.5 km/h 54.7 km/h 82 % 0 mm 413 W/m2
12:05 9.2 °C 6.3 °C 994.1 hPa SE 14.5 km/h 54.7 km/h 82 % 0 mm 350 W/m2
12:14 9.3 °C 6.2 °C 994.1 hPa SSE 14.5 km/h 54.7 km/h 81 % 0 mm 190 W/m2
12:20 9.3 °C 6.2 °C 994.1 hPa South 14.5 km/h 54.7 km/h 81 % 0 mm 438 W/m2
12:25 9.3 °C 6.2 °C 994.1 hPa SSE 16.1 km/h 54.7 km/h 81 % 0 mm 476 W/m2
12:34 9.5 °C 6.2 °C 993.8 hPa SE 16.1 km/h 54.7 km/h 80 % 0 mm 165 W/m2
12:40 9.4 °C 6.3 °C 993.8 hPa ESE 17.7 km/h 54.7 km/h 81 % 0 mm 148 W/m2
12:45 9.4 °C 6.3 °C 993.8 hPa SSE 17.7 km/h 54.7 km/h 81 % 0 mm 220 W/m2
12:50 9.5 °C 6.2 °C 993.8 hPa SE 17.7 km/h 17.7 km/h 80 % 0 mm 299 W/m2
12:55 9.5 °C 6.1 °C 993.8 hPa SE 19.3 km/h 19.3 km/h 79 % 0 mm 155 W/m2
13:05 9.5 °C 6.1 °C 993.5 hPa SSE 16.1 km/h 22.5 km/h 79 % 0 mm 153 W/m2
13:10 9.6 °C 6.1 °C 993.1 hPa SE 14.5 km/h 54.7 km/h 79 % 0 mm 315 W/m2
13:15 9.8 °C 6.1 °C 993.1 hPa SSE 16.1 km/h 54.7 km/h 78 % 0 mm 346 W/m2
13:20 9.9 °C 5.8 °C 993.1 hPa SE 16.1 km/h 54.7 km/h 76 % 0 mm 357 W/m2
13:25 9.9 °C 5.7 °C 992.8 hPa ESE 17.7 km/h 54.7 km/h 75 % 0 mm 334 W/m2
13:30 10.1 °C 6.1 °C 992.8 hPa ESE 16.1 km/h 16.1 km/h 76 % 0 mm 195 W/m2
13:40 10.3 °C 6.1 °C 992.8 hPa ESE 17.7 km/h 17.7 km/h 75 % 0 mm 318 W/m2
13:45 10.1 °C 5.4 °C 992.8 hPa SE 19.3 km/h 19.3 km/h 73 % 0 mm 192 W/m2
13:50 9.8 °C 5.4 °C 992.8 hPa SE 20.9 km/h 20.9 km/h 74 % 0 mm 97 W/m2
13:55 9.6 °C 5.4 °C 992.8 hPa SSE 17.7 km/h 54.7 km/h 75 % 0 mm 65 W/m2
14:00 9.4 °C 5.4 °C 992.4 hPa South 17.7 km/h 17.7 km/h 76 % 0 mm 84 W/m2
14:09 9.4 °C 5.4 °C 992.4 hPa SE 16.1 km/h 16.1 km/h 76 % 0 mm 130 W/m2
14:15 9.4 °C 5.2 °C 992.4 hPa SE 16.1 km/h 54.7 km/h 75 % 0 mm 118 W/m2
14:20 9.4 °C 5.2 °C 992.4 hPa SSE 17.7 km/h 54.7 km/h 75 % 0 mm 120 W/m2
14:25 9.3 °C 5.1 °C 992.4 hPa SSE 19.3 km/h 54.7 km/h 75 % 0 mm 142 W/m2
14:30 9.3 °C 5.3 °C 992.1 hPa ESE 16.1 km/h 16.1 km/h 76 % 0 mm 116 W/m2
14:35 9.3 °C 5.3 °C 992.4 hPa SSE 16.1 km/h 54.7 km/h 76 % 0 mm 83 W/m2
14:44 9.2 °C 5.2 °C 992.1 hPa SE 14.5 km/h 54.7 km/h 76 % 0 mm 40 W/m2
14:49 9.2 °C 5.2 °C 992.1 hPa SSE 12.9 km/h 12.9 km/h 76 % 0 mm 37 W/m2
14:54 9.2 °C 5.2 °C 992.1 hPa SE 14.5 km/h 16.1 km/h 76 % 0 mm 39 W/m2
15:00 9.1 °C 5.1 °C 991.8 hPa SSE 16.1 km/h 16.1 km/h 76 % 0 mm 44 W/m2
15:05 9.1 °C 5.1 °C 991.8 hPa SSE 16.1 km/h 17.7 km/h 76 % 0 mm 35 W/m2
15:14 9 °C 5.2 °C 991.8 hPa SE 14.5 km/h 54.7 km/h 77 % 0 mm 46 W/m2
15:20 8.9 °C 5.1 °C 991.4 hPa SE 12.9 km/h 54.7 km/h 77 % 0 mm 42 W/m2
15:25 8.9 °C 5.3 °C 991.4 hPa SE 14.5 km/h 54.7 km/h 78 % 0 mm 56 W/m2
15:30 8.9 °C 5.3 °C 991.1 hPa ESE 16.1 km/h 16.1 km/h 78 % 0 mm 69 W/m2
15:35 8.9 °C 5.5 °C 991.1 hPa ESE 16.1 km/h 54.7 km/h 79 % 0 mm 70 W/m2
15:40 8.9 °C 5.5 °C 991.1 hPa ESE 16.1 km/h 16.1 km/h 79 % 0 mm 51 W/m2
15:50 8.9 °C 5.4 °C 991.1 hPa ESE 16.1 km/h 16.1 km/h 79 % 0 mm 46 W/m2
15:55 8.9 °C 5.6 °C 991.1 hPa SE 16.1 km/h 17.7 km/h 80 % 0 mm 42 W/m2
16:00 8.9 °C 5.6 °C 991.1 hPa ESE 16.1 km/h 16.1 km/h 80 % 0 mm 39 W/m2
16:05 8.9 °C 5.6 °C 990.7 hPa SE 17.7 km/h 20.9 km/h 80 % 0 mm 42 W/m2
16:10 8.9 °C 5.8 °C 991.1 hPa ESE 17.7 km/h 17.7 km/h 81 % 0 mm 39 W/m2
16:15 8.8 °C 5.7 °C 990.7 hPa ESE 16.1 km/h 54.7 km/h 81 % 0 mm 26 W/m2
16:20 8.8 °C 5.7 °C 990.7 hPa ESE 14.5 km/h 54.7 km/h 81 % 0 mm 23 W/m2
16:25 8.8 °C 5.9 °C 990.4 hPa ESE 17.7 km/h 54.7 km/h 82 % 0 mm 18 W/m2
16:30 8.8 °C 5.9 °C 990.4 hPa ENE 16.1 km/h 16.1 km/h 82 % 0 mm 11 W/m2
16:35 8.7 °C 5.8 °C 990.4 hPa ESE 16.1 km/h 17.7 km/h 82 % 0 mm 7 W/m2
16:40 8.6 °C 5.9 °C 990.4 hPa SSE 16.1 km/h 16.1 km/h 83 % 0 mm 7 W/m2
16:50 8.4 °C 5.7 °C 990.4 hPa SE 14.5 km/h 14.5 km/h 83 % 0 mm 0 W/m2
16:55 8.4 °C 5.7 °C 990.4 hPa SE 14.5 km/h 19.3 km/h 83 % 0 mm 0 W/m2
17:05 8.3 °C 5.6 °C 990.4 hPa ESE 16.1 km/h 54.7 km/h 83 % 0 mm 0 W/m2
17:10 8.3 °C 5.6 °C 990.1 hPa SE 14.5 km/h 14.5 km/h 83 % 0 mm 0 W/m2
17:15 8.3 °C 5.6 °C 990.1 hPa ESE 16.1 km/h 16.1 km/h 83 % 0 mm 0 W/m2
17:25 8.3 °C 5.6 °C 990.1 hPa SE 19.3 km/h 22.5 km/h 83 % 0 mm 0 W/m2
17:30 8.3 °C 5.6 °C 990.1 hPa SE 20.9 km/h 54.7 km/h 83 % 0 mm 0 W/m2
17:35 8.3 °C 5.6 °C 990.1 hPa ESE 20.9 km/h 54.7 km/h 83 % 0 mm 0 W/m2
17:40 8.3 °C 5.8 °C 990.1 hPa SE 20.9 km/h 54.7 km/h 84 % 0 mm 0 W/m2
17:45 8.3 °C 5.7 °C 990.1 hPa ESE 20.9 km/h 54.7 km/h 84 % 0 mm 0 W/m2
17:50 8.3 °C 5.7 °C 990.1 hPa ESE 20.9 km/h 20.9 km/h 84 % 0 mm 0 W/m2
18:00 8.3 °C 5.9 °C 990.1 hPa ESE 22.5 km/h 22.5 km/h 85 % 0 mm 0 W/m2
18:05 8.3 °C 5.9 °C 989.7 hPa ESE 22.5 km/h 29 km/h 85 % 0 mm 0 W/m2
18:10 8.3 °C 5.9 °C 989.7 hPa ESE 20.9 km/h 54.7 km/h 85 % 0 mm 0 W/m2
18:15 8.2 °C 5.8 °C 989.7 hPa SE 20.9 km/h 54.7 km/h 85 % 0 mm 0 W/m2
18:20 8.2 °C 5.8 °C 989.7 hPa SE 20.9 km/h 20.9 km/h 85 % 0 mm 0 W/m2
18:30 8.2 °C 5.8 °C 989.7 hPa ESE 24.1 km/h 54.7 km/h 85 % 0 mm 0 W/m2
18:35 8.2 °C 5.8 °C 989.4 hPa East 22.5 km/h 54.7 km/h 85 % 0 mm 0 W/m2
18:40 8.1 °C 5.7 °C 989.4 hPa ESE 22.5 km/h 22.5 km/h 85 % 0 mm 0 W/m2
18:45 8.1 °C 5.7 °C 989.4 hPa ESE 20.9 km/h 54.7 km/h 85 % 0 mm 0 W/m2
18:50 8.1 °C 5.7 °C 989.4 hPa South 19.3 km/h 54.7 km/h 85 % 0 mm 0 W/m2
18:55 8.1 °C 5.7 °C 989.4 hPa East 19.3 km/h 54.7 km/h 85 % 0 mm 0 W/m2
19:05 8 °C 5.8 °C 989.4 hPa ESE 19.3 km/h 54.7 km/h 86 % 0 mm 0 W/m2
19:10 8 °C 5.6 °C 989.4 hPa SSE 20.9 km/h 20.9 km/h 85 % 0 mm 0 W/m2
19:15 8 °C 5.8 °C 989.1 hPa ESE 22.5 km/h 22.5 km/h 86 % 0 mm 0 W/m2
19:20 7.9 °C 5.7 °C 989.1 hPa ESE 19.3 km/h 54.7 km/h 86 % 0 mm 0 W/m2
19:25 7.9 °C 5.7 °C 989.1 hPa ESE 19.3 km/h 54.7 km/h 86 % 0 mm 0 W/m2
19:35 7.9 °C 5.7 °C 989.1 hPa SE 20.9 km/h 32.2 km/h 86 % 0 mm 0 W/m2
19:40 7.9 °C 5.7 °C 988.7 hPa ESE 19.3 km/h 19.3 km/h 86 % 0 mm 0 W/m2
19:45 7.8 °C 5.8 °C 988.7 hPa SE 19.3 km/h 54.7 km/h 87 % 0 mm 0 W/m2
19:50 7.7 °C 5.8 °C 988.7 hPa ESE 19.3 km/h 19.3 km/h 88 % 0 mm 0 W/m2
19:55 7.6 °C 5.8 °C 988.7 hPa ESE 20.9 km/h 20.9 km/h 89 % 0 mm 0 W/m2
20:00 7.4 °C 5.9 °C 988.4 hPa ESE 19.3 km/h 19.3 km/h 90 % 0 mm 0 W/m2
20:10 7.3 °C 5.9 °C 988.4 hPa ESE 17.7 km/h 54.7 km/h 91 % 0 mm 0 W/m2
20:15 7.2 °C 5.8 °C 988.4 hPa ESE 17.7 km/h 54.7 km/h 91 % 0 mm 0 W/m2
20:20 7.2 °C 5.9 °C 988 hPa ESE 17.7 km/h 54.7 km/h 92 % 0 mm 0 W/m2
20:25 7.2 °C 5.9 °C 988 hPa SE 16.1 km/h 54.7 km/h 92 % 0 mm 0 W/m2
20:35 7.1 °C 5.9 °C 987.7 hPa ESE 17.7 km/h 20.9 km/h 92 % 0 mm 0 W/m2
20:40 7.1 °C 5.9 °C 988 hPa ESE 17.7 km/h 54.7 km/h 92 % 0 mm 0 W/m2
20:45 7.1 °C 5.9 °C 987.7 hPa SE 19.3 km/h 54.7 km/h 92 % 0 mm 0 W/m2
20:55 7.2 °C 5.9 °C 987.7 hPa ESE 17.7 km/h 54.7 km/h 92 % 0 mm 0 W/m2
21:00 7.1 °C 5.9 °C 987.7 hPa ESE 16.1 km/h 16.1 km/h 92 % 0 mm 0 W/m2
21:05 7.1 °C 5.9 °C 987.7 hPa SE 16.1 km/h 20.9 km/h 92 % 0 mm 0 W/m2
21:15 7.1 °C 5.8 °C 987.7 hPa SE 17.7 km/h 17.7 km/h 92 % 0 mm 0 W/m2
21:20 7.1 °C 5.8 °C 987.4 hPa ESE 17.7 km/h 54.7 km/h 92 % 0 mm 0 W/m2
21:25 7.1 °C 5.8 °C 987.4 hPa ESE 16.1 km/h 54.7 km/h 92 % 0 mm 0 W/m2
21:30 7 °C 5.9 °C 987.4 hPa SE 14.5 km/h 14.5 km/h 93 % 0 mm 0 W/m2
21:35 7 °C 5.9 °C 987.4 hPa SSE 12.9 km/h 22.5 km/h 93 % 0 mm 0 W/m2
21:40 6.9 °C 5.9 °C 987.4 hPa SE 12.9 km/h 12.9 km/h 93 % 0 mm 0 W/m2
21:45 6.9 °C 5.8 °C 987.4 hPa SE 12.9 km/h 14.5 km/h 93 % 0 mm 0 W/m2
21:50 6.9 °C 6 °C 987 hPa ESE 14.5 km/h 54.7 km/h 94 % 0 mm 0 W/m2
21:55 6.8 °C 5.9 °C 987 hPa ESE 16.1 km/h 54.7 km/h 94 % 0 mm 0 W/m2
22:00 6.8 °C 5.9 °C 987 hPa ESE 14.5 km/h 54.7 km/h 94 % 0 mm 0 W/m2
22:05 6.8 °C 5.9 °C 987 hPa SE 14.5 km/h 54.7 km/h 94 % 0 mm 0 W/m2
22:10 6.8 °C 5.9 °C 987 hPa SE 16.1 km/h 16.1 km/h 94 % 0 mm 0 W/m2
22:15 6.8 °C 5.9 °C 987 hPa SE 16.1 km/h 54.7 km/h 94 % 0 mm 0 W/m2
22:20 6.8 °C 5.9 °C 987 hPa ESE 16.1 km/h 16.1 km/h 94 % 0 mm 0 W/m2
22:25 6.8 °C 5.9 °C 987 hPa ESE 14.5 km/h 54.7 km/h 94 % 0 mm 0 W/m2
22:30 6.8 °C 5.9 °C 986.7 hPa SE 12.9 km/h 54.7 km/h 94 % 0 mm 0 W/m2
22:35 6.8 °C 6.1 °C 986.7 hPa SE 12.9 km/h 54.7 km/h 95 % 0 mm 0 W/m2
22:40 6.8 °C 6.1 °C 986.7 hPa ESE 12.9 km/h 54.7 km/h 95 % 0 mm 0 W/m2
22:45 6.7 °C 6 °C 986.7 hPa SE 12.9 km/h 54.7 km/h 95 % 0 mm 0 W/m2
22:55 6.8 °C 6.1 °C 986.7 hPa SE 14.5 km/h 54.7 km/h 95 % 0 mm 0 W/m2
23:00 6.7 °C 6 °C 986.7 hPa ESE 14.5 km/h 14.5 km/h 95 % 0 mm 0 W/m2
23:05 6.7 °C 5.8 °C 986.7 hPa SE 14.5 km/h 54.7 km/h 94 % 0 mm 0 W/m2
23:10 6.8 °C 5.9 °C 986.7 hPa SSE 14.5 km/h 14.5 km/h 94 % 0 mm 0 W/m2
23:20 6.7 °C 5.8 °C 986.7 hPa SE 12.9 km/h 54.7 km/h 94 % 0 mm 0 W/m2
23:25 6.7 °C 5.8 °C 986.7 hPa SE 11.3 km/h 54.7 km/h 94 % 0 mm 0 W/m2
23:30 6.7 °C 5.8 °C 986.7 hPa SE 11.3 km/h 54.7 km/h 94 % 0 mm 0 W/m2
23:40 6.7 °C 5.8 °C 986.7 hPa SSE 11.3 km/h 54.7 km/h 94 % 0 mm 0 W/m2
23:45 6.7 °C 5.8 °C 986.7 hPa SE 11.3 km/h 54.7 km/h 94 % 0 mm 0 W/m2
23:50 6.7 °C 6 °C 987 hPa SSW 11.3 km/h 11.3 km/h 95 % 0 mm 0 W/m2
23:55 6.1 °C 4.9 °C 987.4 hPa WNW 12.9 km/h 14.5 km/h 92 % 19.05 mm 0 W/m2
Delerius-Weather
Compliments of Weather Underground - 2 mb

Data updates at regular intervals.